User: anonymous   Login
Location: Croydon
(51.3762°N, 0.0982°W)
Time: 13:47:56
(UTC+01:00)
Language:

XW-2D - Orbit

View from above orbital plane
View from above orbital plane
View from above satellite
View from above satellite

Ground track
Ground track

The orbit data is extracted from the following two-line orbital elements,

1 40907U 15049J   19114.05295503  .00000853  00000-0  48077-4 0  9990
2 40907  97.4651 116.7373 0015541  35.7732   1.5864 15.15781983198588
Epoch (UTC): 24 April 2019 01:16:15
Eccentricity: 0.0015541
inclination: 97.4651°
perigee height: 508 km
apogee height: 529 km
right ascension of ascending node: 116.7373°
argument of perigee: 35.7732°
revolutions per day: 15.15781983
mean anomaly at epoch: 1.5864°
orbit number at epoch: 19858

The dashed part of the orbit path shows where the satellite is in the earth's shadow,  

DLR